Theta_e
289 289 289 289 288 288 287 286 285 285 285 285 285 285 285 285 285 285 285 285 285 285 285 285 285 285 286 286 287 287 287 287 287 287 287 287 288 288 288 288 288 289 289 289 289 289 289 289 289 289 289 289 289 289 289 289 289 289 289 289 290 290 290 291 291 291 291 291 292 292 292 292 292 292 292 292 292 293 293 293 293 293 294 294 294 295
288 288 288 288 288 288 286 285 285 285 285 285 285 285 285 285 285 285 285 285 285 285 285 284 284 284 285 285 286 286 286 286 286 286 286 286 286 287 287 287 288 288 288 288 288 288 288 288 288 288 288 288 288 288 288 288 288 288 288 289 289 290 290 290 290 291 291 291 291 291 291 291 291 291 291 292 292 292 292 292 293 293 293 294 294 294
288 288 287 287 287 287 286 285 285 284 285 285 284 284 284 285 285 285 285 285 285 285 284 284 284 284 284 284 284 285 285 285 285 285 285 286 286 286 286 286 287 287 287 287 288 288 288 288 288 288 287 287 287 287 287 287 288 288 288 288 289 289 289 290 290 290 290 290 290 290 290 290 291 291 291 291 291 292 292 292 292 293 293 293 294 294
287 287 287 287 287 286 285 285 284 284 284 284 284 284 284 284 284 284 284 284 284 284 284 284 284 284 284 284 284 284 284 284 284 285 285 285 285 285 285 286 286 286 287 287 287 287 287 287 287 287 287 287 287 287 287 287 287 287 288 288 288 289 289 289 289 289 289 290 290 290 290 290 290 290 290 291 291 291 291 292 292 292 293 293 293 293
287 286 286 286 286 286 285 284 284 284 284 284 284 284 284 284 284 284 284 284 284 284 284 284 284 284 284 284 283 283 284 284 284 284 284 284 284 284 285 285 285 286 286 286 286 286 286 287 287 286 286 286 286 286 286 287 287 287 287 288 288 288 289 289 289 289 289 289 289 289 289 289 290 290 290 290 290 291 291 291 292 292 292 292 292 293
286 286 286 286 286 285 285 284 284 284 284 284 284 284 284 284 284 284 284 284 284 284 284 283 283 283 283 283 283 283 283 284 284 284 284 284 284 284 284 284 284 285 285 285 286 286 286 286 286 286 286 286 286 286 286 286 286 287 287 287 288 288 288 288 289 289 289 289 289 289 289 289 289 289 290 290 290 290 290 291 291 291 292 292 292 292
286 286 286 286 285 284 284 284 284 284 284 284 284 284 284 284 284 284 284 284 284 284 283 283 283 283 283 283 283 283 283 284 284 284 284 284 284 283 283 284 284 284 284 284 285 285 285 285 285 285 285 285 285 285 285 286 286 286 287 287 287 288 288 288 288 288 288 288 288 288 289 289 289 289 289 290 290 290 290 290 291 291 291 291 291 292
285 286 286 285 285 284 284 284 284 284 284 284 284 284 284 284 284 284 283 283 284 284 284 283 283 283 283 283 283 283 283 283 284 284 284 284 284 283 283 283 283 283 283 283 284 284 284 284 284 284 284 284 284 284 285 285 286 286 286 287 287 287 288 288 288 288 288 288 288 288 288 289 289 289 289 289 289 290 290 290 290 290 290 290 291 291
285 285 285 285 284 284 284 284 283 283 283 283 283 283 283 284 284 284 284 284 283 283 283 283 283 283 283 283 283 283 283 283 283 283 283 283 283 283 283 283 283 283 283 283 283 283 283 283 283 283 283 283 283 284 284 285 285 286 286 287 287 287 287 287 287 288 288 288 288 288 288 288 289 289 289 289 289 289 289 289 289 289 290 290 290 291
285 285 284 284 284 283 283 283 283 283 283 283 283 282 282 283 283 283 283 283 283 283 283 283 283 283 283 283 282 283 283 283 283 283 283 283 283 283 283 283 283 283 283 283 283 283 283 283 283 283 283 283 283 283 284 284 285 286 286 286 287 287 287 287 287 287 287 287 288 288 288 288 288 288 288 289 289 289 289 289 289 289 289 289 290 290
285 284 284 284 283 283 283 283 283 283 283 283 283 283 282 282 282 282 282 282 283 283 283 283 283 283 283 283 282 283 283 283 283 283 283 283 283 283 283 283 283 283 283 282 282 282 282 282 283 283 283 283 283 283 284 284 285 285 286 286 287 287 287 287 287 287 287 287 287 287 288 288 288 288 288 288 288 288 288 288 288 289 289 289 289 289
284 284 284 283 283 283 283 283 283 283 283 283 283 282 282 282 281 281 281 281 281 282 282 283 282 282 282 282 282 282 283 283 283 283 283 283 283 283 283 283 283 283 283 283 283 282 282 282 282 282 282 283 283 283 283 284 285 285 286 286 286 287 287 287 287 287 287 287 287 287 287 287 288 288 288 288 288 288 288 288 288 288 288 289 289 289
284 283 283 283 283 282 282 282 282 282 282 282 281 281 281 281 281 281 281 281 281 281 281 282 282 282 282 282 282 282 282 282 282 283 283 283 282 282 282 283 283 283 283 283 283 282 282 282 282 282 282 282 283 283 283 284 285 285 286 286 286 286 286 286 286 286 286 287 287 287 287 287 287 287 287 288 288 288 288 288 288 288 288 288 289 289
283 283 283 283 282 282 282 282 282 281 281 281 281 281 281 281 281 281 281 281 281 281 281 281 282 282 282 282 282 282 282 282 282 282 283 283 282 282 282 282 282 282 282 282 282 282 282 282 282 282 282 282 283 283 283 284 285 285 286 286 286 286 286 286 286 286 286 286 286 287 287 287 287 287 287 287 287 287 288 288 288 288 288 288 288 288
283 283 282 282 282 282 281 281 281 281 281 281 281 280 281 281 281 281 281 281 281 281 281 281 282 282 282 282 282 281 281 281 281 281 282 282 282 282 282 282 282 282 282 282 282 282 282 282 282 282 282 282 283 283 283 284 285 285 286 286 286 286 286 286 286 286 286 286 286 286 286 287 287 287 287 287 287 287 287 287 287 287 288 288 288 288
283 282 282 282 282 281 281 281 281 281 281 281 281 281 281 281 281 281 280 280 280 281 281 281 281 282 282 282 282 281 281 281 281 280 281 282 282 282 281 281 282 282 282 282 282 282 282 282 282 282 282 282 282 283 283 284 284 285 285 285 286 286 286 286 286 286 286 286 286 286 286 286 287 287 287 287 287 287 287 287 287 287 287 288 288 288
282 282 282 282 282 281 281 281 281 281 281 281 281 281 281 281 280 280 280 280 280 280 280 280 280 280 281 282 282 282 281 281 280 280 280 281 282 282 281 281 281 281 281 281 282 282 282 282 282 282 282 282 282 283 283 284 284 285 285 285 285 285 285 285 286 286 286 286 286 286 286 286 286 286 287 287 287 287 287 287 287 287 287 287 287 288
282 282 282 282 282 281 281 281 281 281 281 281 281 281 280 280 280 280 280 280 280 280 280 280 280 280 280 281 282 282 281 280 280 280 280 280 281 282 281 281 281 281 281 281 281 282 282 282 282 282 282 282 282 283 283 284 284 284 285 285 285 285 285 285 285 285 285 286 286 286 286 286 286 286 286 286 286 287 287 287 287 287 287 287 287 287
282 282 282 282 282 282 282 282 281 281 281 281 281 281 281 280 280 280 280 280 280 280 280 280 281 281 281 281 281 281 281 280 280 280 280 280 281 281 281 281 281 281 281 281 281 282 282 282 282 282 282 282 282 283 283 284 284 284 284 285 285 285 285 285 285 285 285 285 286 286 286 286 286 286 286 286 286 286 287 287 287 287 287 287 287 287
282 282 282 282 282 282 282 282 282 282 281 281 281 281 281 281 281 281 281 281 281 281 281 281 281 281 281 281 281 281 281 280 280 280 280 280 281 281 281 281 281 281 281 281 281 281 282 282 282 282 282 282 282 282 283 283 284 284 284 284 285 285 285 285 285 285 285 285 285 285 286 286 286 286 286 286 286 286 286 287 287 287 287 287 287 287
282 282 282 282 282 283 282 282 282 282 282 282 282 282 281 281 281 281 281 281 281 281 281 281 281 281 281 281 281 281 281 280 280 280 280 280 281 281 281 281 280 280 280 281 281 281 281 282 282 282 282 282 282 282 283 283 283 284 284 284 284 284 285 285 285 285 285 285 285 285 285 286 286 286 286 286 286 286 286 286 286 286 287 287 287 287
283 283 283 283 283 283 283 283 282 282 282 282 282 282 282 282 282 282 282 282 282 282 282 282 282 281 281 281 281 281 281 280 280 280 280 280 281 281 281 281 280 280 281 281 281 281 281 281 282 282 282 282 282 282 282 283 283 283 284 284 284 284 284 284 285 285 285 285 285 285 285 285 285 286 286 286 286 286 286 286 286 286 286 286 287 287
283 283 283 283 283 283 283 283 283 283 283 283 283 283 283 283 282 282 282 282 282 282 282 282 281 281 281 281 281 281 281 280 280 280 280 280 280 281 281 281 280 280 281 281 281 281 281 281 282 282 282 282 282 282 282 282 283 283 283 284 284 284 284 284 284 284 285 285 285 285 285 285 285 285 286 286 286 286 286 286 286 286 286 286 286 286
283 283 283 283 283 283 283 283 283 284 284 284 284 284 283 283 283 283 283 283 282 282 282 282 281 281 281 281 281 281 281 281 280 280 280 280 280 280 280 280 280 280 281 281 281 281 281 281 281 282 282 282 282 282 282 282 282 283 283 284 284 284 284 284 284 284 284 284 284 285 285 285 285 285 285 285 285 286 286 286 286 286 286 286 286 286
283 283 283 283 283 284 284 284 284 284 284 284 284 284 284 284 284 283 283 283 283 282 282 281 281 281 281 281 281 281 281 281 280 280 280 280 280 280 280 280 280 280 280 280 281 280 281 281 281 281 281 281 282 282 282 282 282 283 283 283 283 284 284 284 284 284 284 284 284 284 285 285 285 285 285 285 285 285 285 285 286 286 286 286 286 286
283 283 283 283 284 284 284 284 284 284 284 284 284 284 284 284 284 283 283 283 282 282 281 281 281 280 280 280 280 280 280 280 280 280 280 280 280 280 280 280 280 280 280 280 280 280 280 281 281 281 281 281 281 281 281 282 282 282 283 283 283 283 283 283 283 283 284 284 284 284 284 284 285 285 285 285 285 285 285 285 285 286 286 286 285 285
283 283 283 283 283 283 283 283 283 283 283 284 284 284 284 284 284 283 283 282 282 281 281 280 280 280 280 280 280 280 280 280 280 280 280 280 280 280 280 280 280 280 280 280 280 280 280 281 281 281 281 281 281 281 281 281 282 282 282 282 283 283 283 283 283 283 283 283 284 284 284 284 284 284 284 285 285 285 285 285 285 285 285 285 285 285
282 282 282 282 282 282 282 282 282 282 282 283 284 284 284 283 283 282 282 282 281 281 281 280 280 280 280 280 280 280 280 280 280 280 280 280 280 280 280 280 280 280 280 280 280 280 280 281 281 281 281 281 281 281 281 281 281 282 282 282 282 282 282 282 283 283 283 283 283 283 284 284 284 284 284 284 284 285 285 285 285 285 285 285 285 284
281 281 281 281 281 281 281 281 281 281 282 282 283 283 283 282 282 281 281 281 281 281 280 280 280 280 280 280 280 280 280 280 280 280 280 280 280 280 280 280 280 280 280 280 280 280 280 281 281 281 281 281 281 281 281 281 281 281 282 282 282 282 282 282 282 282 283 283 283 283 283 283 284 284 284 284 284 284 285 285 285 285 285 285 285 284
281 281 281 281 281 281 280 280 280 281 281 281 282 282 281 281 281 281 281 280 280 280 280 280 280 280 280 279 279 279 280 280 280 280 280 280 280 280 280 280 280 280 279 279 280 280 280 281 281 281 281 281 281 281 281 281 281 281 281 282 281 281 281 282 282 282 282 282 282 283 283 283 283 283 283 284 284 284 284 284 285 285 285 285 284 284
281 281 280 280 280 280 280 280 280 280 280 281 281 281 281 281 280 280 280 280 280 280 280 280 280 280 279 279 279 278 279 280 280 279 279 280 280 280 280 280 280 279 279 279 280 280 280 281 281 281 281 280 280 281 281 281 281 281 281 281 281 281 281 281 281 281 282 282 282 282 282 282 283 283 283 283 284 284 284 284 284 285 284 284 284 284
281 280 280 280 280 280 280 280 280 280 280 280 280 280 280 280 280 280 280 280 280 279 279 279 279 279 279 279 278 278 279 279 279 279 279 280 280 280 280 279 279 279 279 279 279 280 280 280 280 280 280 280 280 281 281 281 281 281 281 281 281 281 281 281 281 281 281 281 281 282 282 282 282 282 283 283 283 284 284 284 284 284 284 284 284 284
281 280 280 280 280 280 280 280 280 280 280 280 280 280 280 280 280 280 279 279 279 279 279 279 279 279 278 278 278 279 279 279 279 279 279 280 280 279 279 279 279 279 279 279 279 279 280 280 280 280 280 280 280 281 281 281 281 281 281 281 281 281 281 281 281 281 281 281 281 281 281 282 282 282 282 283 283 283 283 284 284 284 284 284 284 284
281 280 280 280 280 280 280 280 280 280 280 280 280 280 280 280 279 279 279 279 279 279 279 279 278 278 278 278 278 278 278 279 279 279 279 279 279 279 279 279 279 279 279 279 279 279 279 280 280 280 280 280 280 281 281 281 281 281 281 281 281 281 281 281 281 281 281 281 281 281 281 281 282 282 282 282 282 283 283 283 283 283 283 283 283 284
281 280 280 280 280 280 280 279 279 279 279 279 279 279 279 279 279 279 279 279 279 278 278 278 278 278 278 278 278 278 279 279 279 279 279 279 279 279 279 279 279 279 279 279 279 279 279 279 280 280 280 280 280 280 281 281 281 281 281 281 280 280 280 281 281 281 281 281 281 281 281 282 282 282 282 282 282 282 283 283 283 283 283 283 283 283
280 280 280 280 280 280 279 279 279 279 279 279 279 279 279 279 279 279 279 278 278 278 278 278 278 278 278 278 278 278 278 278 278 278 278 278 278 279 278 279 279 279 279 279 279 279 279 279 279 280 280 280 280 280 280 280 280 280 280 280 280 280 280 281 281 281 281 281 281 281 281 281 282 282 282 282 282 282 282 282 282 282 282 283 283 283
280 280 280 280 280 279 279 279 279 279 279 279 279 279 279 278 278 278 278 278 278 278 278 278 278 278 278 278 278 278 278 278 278 278 278 278 278 278 278 278 278 279 279 279 279 279 279 279 279 279 280 280 280 280 280 280 280 280 280 280 280 280 280 281 281 281 281 281 281 281 281 281 282 281 281 281 281 281 281 281 282 282 282 282 282 283
280 279 279 279 279 279 279 279 279 279 279 279 278 278 278 278 278 278 278 278 278 278 278 278 278 278 278 278 278 278 278 278 278 278 278 278 278 278 278 278 278 278 278 279 279 279 279 279 279 279 279 280 280 280 280 280 280 280 280 280 280 280 280 280 281 281 281 281 281 281 281 281 281 281 281 281 281 281 281 281 281 282 282 282 282 282
279 279 279 279 279 279 279 279 279 279 278 278 278 278 278 278 278 278 278 278 278 278 278 278 278 278 278 278 278 278 278 278 278 278 278 278 278 278 278 278 278 278 278 278 278 278 279 279 279 279 279 280 280 280 280 280 280 280 280 280 280 280 280 280 280 281 281 281 281 281 281 281 281 281 281 281 281 281 281 281 281 281 282 282 282 282
279 279 279 279 279 279 279 278 278 278 278 278 278 278 278 278 278 278 278 278 278 278 277 277 277 277 277 277 278 278 278 278 278 278 278 278 278 278 278 278 278 278 278 278 278 278 279 279 279 279 279 279 279 279 279 279 279 279 280 280 280 280 280 280 280 281 281 281 281 281 281 281 281 281 281 281 281 281 281 281 281 281 282 282 282 282
279 279 279 279 279 279 278 278 278 278 278 278 278 278 278 278 278 278 278 278 278 278 277 277 277 277 277 277 278 278 278 278 278 278 278 278 278 278 278 278 278 278 279 279 278 278 279 279 279 279 279 279 279 279 279 279 279 279 280 280 280 280 280 280 281 281 281 281 281 281 281 281 281 281 281 281 281 281 281 281 281 281 282 282 282 282
279 279 279 279 279 278 278 278 278 278 277 277 277 277 277 277 277 277 277 277 277 277 277 277 277 277 277 277 277 278 278 278 278 278 278 278 278 278 278 278 278 278 279 279 278 278 279 279 279 279 279 279 279 279 279 279 279 279 279 280 280 280 280 280 281 281 281 281 281 281 281 281 281 281 281 281 281 281 281 281 281 282 282 282 282 282
279 279 279 278 278 278 278 278 277 277 277 277 277 277 277 277 277 277 277 277 277 277 277 277 277 277 277 277 277 277 278 278 278 278 278 278 278 278 278 278 278 278 278 279 278 278 279 279 278 278 278 278 278 278 279 279 279 279 279 279 280 280 280 280 281 281 281 281 281 280 280 280 281 281 281 281 281 281 281 281 282 282 282 282 282 283
278 278 278 278 278 278 277 277 277 277 277 277 277 277 277 277 277 277 277 277 277 277 277 277 277 277 277 277 277 277 277 277 277 277 278 278 278 278 278 278 278 278 278 278 278 278 278 278 278 278 278 278 278 278 278 279 279 279 279 279 280 280 280 280 280 280 280 280 280 280 280 280 280 281 281 281 281 281 281 282 282 282 282 282 283 283
278 278 278 278 278 277 277 277 277 277 277 277 277 277 277 277 276 276 276 276 276 276 277 277 276 276 277 277 277 277 277 277 277 277 277 277 278 278 278 278 278 278 278 278 278 278 278 278 278 278 278 278 278 278 278 278 279 279 279 279 280 280 280 280 280 280 280 280 280 280 280 280 281 281 281 281 281 281 282 282 282 282 282 283 283 283
278 277 277 277 277 277 277 277 277 276 276 276 276 276 276 276 276 276 276 276 276 276 276 276 276 276 276 276 276 276 276 276 276 277 277 277 277 277 277 277 278 278 278 278 278 277 277 277 278 278 278 278 278 278 278 278 279 279 279 279 280 280 280 280 280 280 280 280 280 280 280 280 281 281 281 281 281 282 282 282 282 282 283 283 283 283
277 277 277 277 277 277 276 276 276 276 276 275 275 275 275 275 275 276 276 276 276 276 276 276 276 276 276 276 276 276 276 276 276 277 277 277 277 277 277 277 277 277 277 277 277 277 277 277 278 278 278 278 278 278 278 279 279 279 279 279 280 280 280 280 280 280 280 280 280 280 280 280 280 281 281 281 281 282 282 282 282 283 283 283 283 283
277 277 277 277 276 276 276 276 276 275 275 275 275 275 275 275 275 275 276 276 276 276 276 276 276 276 276 276 276 276 276 276 276 276 277 277 277 277 277 277 277 277 277 277 277 277 277 277 278 278 278 278 278 278 279 279 279 279 280 280 280 280 279 279 280 280 280 280 280 280 280 280 281 281 281 281 282 282 282 282 283 283 283 283 283 283
277 276 276 276 276 276 276 276 276 275 275 275 275 275 275 275 275 275 276 276 276 276 275 275 275 276 276 276 276 276 276 276 276 276 276 277 277 277 277 277 277 277 277 277 277 277 277 277 278 278 278 279 279 279 279 279 280 280 280 280 279 279 279 279 279 280 280 280 280 280 280 280 281 281 281 281 282 282 282 283 283 283 283 283 283 283
276 276 276 276 276 276 276 276 275 275 275 275 275 275 275 275 275 275 275 275 275 275 275 275 275 275 276 276 276 276 276 276 276 276 276 276 276 276 276 276 276 276 276 276 277 277 277 277 278 278 279 279 279 279 280 280 280 280 279 279 279 279 279 279 279 279 280 280 280 280 280 280 281 281 281 282 282 282 283 283 283 283 283 283 283 283
276 276 276 276 276 276 276 275 275 275 275 275 275 275 275 275 275 275 275 275 275 275 275 275 275 275 275 276 276 276 276 276 276 276 276 276 276 276 276 276 276 276 276 277 277 277 277 278 278 278 279 279 279 280 280 280 279 279 279 279 279 279 279 279 279 279 280 280 280 280 280 281 281 281 282 282 282 283 283 283 283 283 283 283 283 283
Wind_Speed
10 8 6 5 5 7 10 11 11 10 10 10 10 10 10 10 10 10 10 10 11 12 12 12 12 12 13 14 14 14 14 14 13 13 13 13 14 14 15 15 15 16 16 16 16 16 16 17 17 17 17 17 17 17 17 17 17 17 18 18 18 19 19 19 19 20 20 20 20 21 21 21 22 22 22 22 23 23 24 24 24 24 25 25 25 25
10 8 6 5 5 7 10 11 11 11 10 10 10 10 10 11 11 11 11 11 11 12 12 13 13 13 14 14 14 14 13 13 12 12 13 13 13 14 14 15 15 16 16 16 16 16 17 17 17 17 18 18 18 18 18 18 18 18 18 18 19 19 19 19 19 20 20 20 20 21 21 21 22 22 22 23 23 23 24 24 24 24 24 25 25 25
10 9 7 6 6 7 10 11 11 10 10 10 10 10 11 11 12 12 12 12 11 12 12 13 14 15 16 16 15 14 13 12 12 12 13 13 13 14 14 15 15 16 16 16 16 16 17 17 18 18 18 18 18 18 18 18 18 18 18 18 19 19 19 19 20 20 20 20 21 21 21 22 22 22 23 23 23 23 23 24 24 24 24 24 25 25
11 10 8 6 5 7 9 10 10 9 9 10 10 10 11 12 13 13 12 12 11 12 12 13 15 16 17 17 16 15 13 13 13 13 13 13 14 14 14 15 15 16 16 16 16 17 17 18 18 18 18 18 18 18 18 18 18 18 18 18 19 19 19 19 20 20 20 21 21 21 21 22 22 22 23 23 23 23 23 23 23 23 24 24 24 25
11 10 7 6 6 7 8 9 9 9 9 10 11 11 12 13 13 13 12 11 11 11 12 14 15 16 18 18 17 16 14 13 13 13 13 14 14 15 15 15 15 15 16 16 16 17 17 18 18 18 18 18 18 18 18 18 18 18 19 19 19 19 20 20 20 20 21 21 21 21 22 22 22 22 22 22 22 22 23 23 23 23 24 24 25 25
10 8 6 5 6 8 8 8 8 9 10 11 11 12 13 13 13 13 13 12 12 12 12 14 15 16 17 18 18 17 15 14 13 13 14 14 15 15 15 15 15 15 16 16 16 16 17 18 18 18 18 18 18 18 18 18 18 18 19 19 19 20 20 20 21 21 21 21 21 21 22 22 22 22 22 22 22 22 23 23 23 24 25 25 26 26
9 6 5 5 6 7 7 8 9 9 10 11 12 12 12 13 13 14 14 13 12 12 12 13 14 16 17 17 18 17 16 15 14 13 14 14 15 16 16 16 16 16 16 16 16 17 17 18 18 18 18 18 18 18 18 18 18 19 19 20 20 20 20 20 21 21 21 21 21 21 21 21 21 21 22 22 22 23 23 24 24 25 26 26 27 27
8 6 4 5 6 6 8 9 10 10 11 12 13 13 13 13 14 14 14 13 12 12 12 13 14 15 17 17 18 18 18 17 15 14 14 15 16 16 17 17 17 17 17 17 17 17 17 18 18 18 18 18 18 18 18 18 19 19 19 20 20 20 20 20 21 21 21 21 21 21 21 21 21 22 22 23 23 24 24 25 26 26 26 27 27 28
8 7 5 5 6 8 9 10 10 11 11 12 13 14 15 15 14 14 14 14 14 14 13 14 14 15 17 18 18 19 19 18 17 16 15 15 16 17 18 18 18 18 18 18 18 18 18 19 19 19 19 18 18 18 18 18 19 19 20 20 20 20 20 20 21 21 21 21 21 21 21 22 22 22 23 23 24 25 25 26 26 26 27 27 27 27
7 7 7 6 7 8 10 10 10 10 10 11 12 14 15 17 17 16 16 16 15 15 14 15 15 16 17 18 19 20 20 19 17 16 15 16 16 17 18 19 19 19 19 19 19 19 19 19 20 20 19 18 18 18 18 19 19 19 20 20 20 20 20 21 21 21 21 22 22 22 22 22 23 23 24 24 24 25 25 26 26 26 26 27 27 27
7 6 7 7 7 7 8 9 9 9 9 9 10 12 14 16 18 18 18 18 17 16 16 15 14 15 16 17 19 21 21 21 19 17 16 16 16 17 18 19 20 20 20 20 20 20 20 20 20 20 20 19 19 19 19 19 19 20 20 20 20 20 21 21 22 22 22 22 22 23 23 23 23 24 24 24 25 25 25 25 25 26 26 26 26 26
7 7 7 7 7 7 8 8 7 8 9 10 11 13 15 16 17 16 16 17 18 18 17 16 14 13 14 16 19 22 23 23 22 20 18 17 17 18 19 20 21 21 21 21 21 22 21 21 21 21 21 20 20 19 19 20 20 20 20 20 20 21 21 22 22 23 23 23 23 23 23 23 24 24 24 24 25 25 25 25 25 25 25 25 25 26
7 6 6 6 7 8 9 9 10 10 12 13 14 13 14 15 15 15 15 15 16 17 18 17 15 13 12 14 18 21 23 24 23 22 20 19 19 20 21 22 23 23 23 23 23 23 23 23 23 22 22 21 21 20 20 20 20 20 21 21 21 21 22 23 23 23 23 23 23 23 24 24 24 24 24 25 25 25 25 25 25 25 25 25 25 25
7 6 6 7 8 8 9 10 11 12 12 12 11 11 11 13 14 15 15 15 16 17 17 18 16 14 12 13 17 21 23 24 24 23 22 20 19 20 21 23 24 24 24 24 24 24 24 24 24 24 23 22 21 21 21 21 21 21 21 21 22 22 23 23 24 24 24 24 24 24 24 24 24 24 25 25 25 25 25 25 25 25 25 25 25 25
6 6 7 8 8 8 8 9 9 9 9 9 9 9 11 12 14 15 16 16 17 18 19 19 18 15 12 12 16 20 23 25 25 25 24 22 20 19 21 22 24 24 25 24 25 25 24 25 25 25 24 23 22 22 22 22 22 22 22 22 22 23 24 24 24 25 24 24 24 24 24 24 25 25 25 25 25 25 25 25 25 25 25 25 25 25
5 5 7 7 6 6 7 7 7 7 7 7 8 9 10 12 13 14 15 15 16 17 18 19 18 16 13 13 16 20 23 25 25 24 24 23 21 19 20 22 23 24 24 24 24 25 25 25 25 25 24 23 22 22 22 22 22 22 23 23 23 24 24 25 25 25 25 25 24 24 24 25 25 25 25 25 25 25 25 25 25 25 25 25 25 25
5 4 5 4 5 5 5 5 6 6 6 6 7 8 9 11 12 13 13 14 15 15 15 15 13 11 12 15 17 20 23 24 24 23 23 23 20 19 20 21 22 23 24 24 24 25 26 26 26 26 24 23 22 22 22 22 23 23 23 23 24 24 25 25 25 25 25 25 25 25 25 25 25 25 25 25 25 25 25 25 25 25 25 25 25 26
4 3 3 3 4 4 4 5 5 6 6 6 6 7 8 9 10 11 11 12 12 13 13 13 11 9 11 13 17 20 22 23 23 23 22 21 20 19 19 20 21 22 23 23 24 25 26 27 27 26 24 23 22 22 22 23 23 23 23 23 24 25 25 25 25 25 25 25 25 25 25 25 25 25 25 25 25 25 25 25 25 25 25 25 26 26
4 3 3 3 3 4 4 5 5 5 6 6 6 7 8 9 9 9 10 10 10 10 11 11 11 12 12 15 19 21 21 21 22 21 20 20 19 19 19 21 22 22 23 23 24 25 26 27 26 25 24 23 22 22 22 23 23 23 23 23 24 25 25 25 25 25 25 25 25 25 25 25 25 25 25 25 25 25 25 25 25 25 25 26 26 26
5 4 3 3 4 4 5 5 5 5 5 6 6 7 8 9 9 9 9 9 9 9 10 11 12 13 15 18 20 21 19 20 20 20 18 18 18 19 20 22 23 24 23 23 24 25 27 27 27 25 24 23 22 22 22 23 23 23 23 23 24 25 25 25 25 25 25 24 25 25 25 25 25 25 25 25 25 25 25 25 26 26 26 26 27 27
5 4 4 4 4 5 5 5 4 5 6 6 7 8 9 9 9 10 10 9 10 10 11 11 12 14 16 19 20 19 18 18 19 18 18 18 18 19 21 23 24 24 23 23 24 26 27 27 27 26 24 23 23 22 22 22 22 22 23 23 24 24 25 25 25 24 24 24 25 25 25 25 25 25 25 25 25 26 26 26 26 26 26 27 27 28
4 4 3 3 4 5 5 5 5 5 6 7 8 9 9 10 10 11 11 11 11 11 11 12 13 15 17 18 17 17 16 16 17 17 17 16 17 20 23 24 24 23 22 23 25 27 27 28 27 25 24 23 22 22 22 22 22 22 23 23 24 24 25 24 24 24 24 25 25 25 25 25 25 25 25 26 26 26 26 26 26 27 27 28 28 28
4 3 3 3 4 5 6 6 6 6 7 7 8 9 10 10 11 11 11 11 11 11 12 13 14 16 16 16 15 15 15 15 16 16 15 13 15 20 24 25 24 23 22 23 25 27 28 28 27 25 24 23 22 22 22 22 22 22 23 24 24 24 24 24 24 24 24 25 25 25 25 25 26 26 26 26 26 26 26 27 27 27 28 28 28 28
5 4 4 4 5 6 6 7 8 8 8 9 9 10 10 10 11 11 11 11 11 12 13 14 15 15 14 13 13 13 14 15 15 15 13 11 14 19 23 24 24 22 23 24 25 26 28 28 27 25 24 22 22 21 22 22 22 23 23 24 24 24 24 24 24 24 25 25 25 25 25 25 26 26 26 26 26 27 27 27 27 28 28 29 29 28
5 5 5 5 6 6 7 8 8 9 9 10 10 10 10 10 10 11 11 11 11 11 12 13 13 12 12 11 11 12 14 15 14 13 12 12 15 19 21 22 22 22 23 24 25 26 27 27 26 25 23 22 21 21 22 23 23 23 24 24 24 24 24 24 24 24 25 25 26 26 26 26 26 26 26 26 26 27 27 27 28 28 29 29 28 27
4 5 5 5 5 6 6 7 7 8 8 8 9 10 10 10 10 10 10 10 10 11 12 12 11 10 10 9 10 12 15 14 12 11 11 12 14 17 19 20 21 21 23 25 25 25 25 26 25 24 23 21 21 21 23 23 24 24 24 24 24 23 23 24 24 24 25 25 26 26 26 26 26 26 26 26 27 27 27 28 28 29 29 29 28 27
3 3 3 4 4 5 5 5 5 6 6 6 7 7 8 9 10 10 10 10 10 10 10 9 9 9 9 9 9 12 14 13 10 9 10 12 14 15 17 18 20 21 22 24 24 24 23 23 23 23 22 21 21 22 24 24 24 24 24 23 23 23 23 24 24 25 25 25 26 26 26 26 26 26 26 26 27 27 27 28 29 29 29 28 27 26
6 5 5 4 4 5 5 6 6 5 5 5 5 6 7 8 9 9 9 9 9 9 9 8 8 8 8 8 10 12 12 9 7 7 10 12 12 12 15 17 18 19 21 23 24 23 21 20 20 21 20 20 22 23 25 25 25 24 24 24 23 23 23 24 24 25 25 25 26 26 26 26 26 26 26 27 27 27 28 28 29 29 28 27 26 26
7 7 7 6 6 6 7 7 7 6 5 4 4 5 7 8 8 8 8 8 9 9 8 8 8 8 8 10 11 11 8 5 5 7 11 12 11 11 14 15 16 17 19 21 23 23 20 18 18 18 19 20 22 24 25 26 25 25 25 24 24 24 24 24 25 25 25 25 25 25 26 26 26 26 26 27 27 27 28 28 29 28 28 27 26 26
6 6 6 7 7 7 7 8 8 7 6 6 5 6 8 8 8 8 8 9 9 9 9 9 8 8 9 10 9 7 4 2 4 8 11 12 11 11 13 14 15 16 17 18 18 18 18 19 17 17 18 21 23 25 25 25 25 25 25 25 26 26 25 25 25 26 26 25 25 25 26 26 26 26 27 27 27 27 28 28 28 28 27 27 27 26
5 5 6 6 6 6 6 6 7 7 7 7 8 8 8 8 8 8 9 9 9 9 9 9 9 8 8 8 5 3 3 4 6 9 11 11 10 11 13 13 14 14 14 13 11 10 12 17 19 19 20 22 23 24 24 24 24 24 25 25 26 26 26 26 26 26 26 26 26 26 26 26 26 26 27 27 27 27 27 28 28 28 27 27 27 27
6 6 6 6 6 6 6 6 7 7 7 8 8 8 8 9 9 9 9 10 10 10 9 9 9 8 7 6 5 5 7 8 9 10 10 10 11 12 12 13 14 14 13 12 11 9 6 13 19 23 24 23 23 23 23 23 23 23 24 25 26 27 27 27 26 26 26 26 26 26 26 27 27 27 27 27 27 27 27 28 28 28 27 27 27 27
8 7 7 7 7 7 7 7 7 8 8 8 9 9 9 9 9 10 10 10 10 10 10 9 8 8 8 8 8 9 10 11 10 10 9 10 11 12 12 13 14 14 14 13 13 12 11 14 19 23 24 24 23 22 22 22 22 22 23 25 26 27 28 27 27 26 26 27 27 27 27 27 27 27 27 27 27 27 28 28 28 28 27 27 27 27
9 8 8 7 7 8 8 8 8 8 9 9 9 10 10 10 10 11 11 11 10 10 9 9 8 7 7 8 9 11 11 11 10 9 9 10 11 12 13 14 14 14 15 14 14 14 15 17 19 20 22 23 23 22 21 21 21 22 23 24 25 27 27 27 27 27 27 27 27 27 27 27 28 28 28 28 28 28 28 28 28 28 27 26 26 27
9 9 8 8 9 9 9 9 9 9 9 9 10 10 10 11 11 11 10 10 9 9 9 8 8 8 8 9 10 11 11 11 10 10 10 11 13 14 14 14 14 14 14 14 14 14 15 17 18 19 20 22 22 22 20 20 20 21 22 23 24 25 27 27 27 27 27 27 27 27 27 27 27 28 28 28 28 29 29 29 29 28 27 26 26 26
10 9 9 9 9 9 9 9 9 9 9 10 10 10 10 10 10 9 9 9 8 8 8 8 8 9 10 11 12 13 14 14 13 13 13 14 15 15 15 15 14 14 14 14 15 15 15 17 18 19 19 19 20 21 21 21 21 22 22 23 23 24 25 26 26 26 27 27 27 26 26 26 27 27 28 29 29 29 30 29 29 28 27 27 26 25
10 10 10 10 10 10 10 9 9 9 10 10 10 9 9 9 8 8 8 8 8 8 8 9 9 10 11 12 14 16 17 17 16 16 16 16 17 17 16 16 15 15 14 14 15 16 16 17 18 19 18 18 18 19 21 23 23 22 22 23 23 24 24 24 25 25 26 26 26 26 26 26 27 27 28 29 30 30 30 30 29 29 28 28 27 26
10 10 10 10 10 10 9 9 9 9 9 9 9 9 9 8 8 7 7 8 8 9 9 10 10 11 12 12 13 15 16 17 17 17 17 16 16 16 17 17 17 16 16 16 16 16 16 16 16 16 17 18 19 20 21 22 23 23 23 23 23 23 23 23 24 25 25 25 26 26 26 26 27 28 29 29 30 30 30 30 30 30 29 29 29 28
10 11 11 11 10 10 9 9 9 9 9 9 9 9 9 9 8 8 8 9 9 10 10 11 11 12 12 13 14 14 15 16 16 15 15 14 14 14 16 17 18 18 18 18 17 17 16 16 16 16 16 18 20 21 22 22 22 22 23 23 23 22 22 22 23 24 25 25 26 26 26 27 27 27 28 28 29 30 30 30 30 30 30 29 29 29
11 11 11 11 10 9 9 9 9 10 10 10 10 10 10 10 10 10 10 10 10 10 10 11 12 12 13 13 13 13 13 13 13 12 12 12 12 12 14 15 17 18 18 18 18 18 17 17 17 18 19 19 20 21 22 22 22 22 22 22 22 22 23 23 24 24 24 24 25 26 27 27 27 27 27 28 29 29 29 30 30 30 29 28 28 28
11 11 11 11 10 9 9 9 10 10 10 11 11 11 11 11 11 11 11 11 11 10 10 11 12 13 14 14 13 12 11 11 10 10 10 10 10 11 13 14 15 16 17 18 18 18 17 18 18 19 20 20 21 22 22 22 22 22 21 21 21 23 24 24 23 23 23 24 25 26 27 27 27 27 27 28 28 29 29 29 30 30 28 27 26 27
11 11 11 10 9 9 9 9 10 11 11 12 12 12 12 12 12 12 12 12 11 11 11 11 12 14 14 15 14 13 11 10 10 9 9 9 10 11 12 13 13 15 16 18 18 18 18 18 19 20 20 20 21 21 22 22 22 21 20 21 22 24 24 23 22 22 23 25 26 27 27 27 27 27 28 28 29 29 29 29 29 29 28 27 27 27
11 11 11 10 9 9 9 9 10 11 12 12 12 12 12 11 11 11 11 12 12 12 12 12 13 14 15 16 15 14 13 11 10 10 9 9 10 10 11 11 12 13 15 17 18 19 20 20 20 20 21 21 21 21 22 23 22 22 21 21 22 21 20 21 23 24 25 26 26 27 27 27 27 28 28 28 28 29 29 29 28 28 28 28 28 28
11 11 11 10 10 9 10 10 10 11 12 12 12 12 11 11 10 11 11 12 13 12 12 12 13 14 15 15 15 15 14 12 11 10 10 10 10 10 11 11 12 12 14 16 18 19 20 20 21 21 22 21 21 21 21 22 22 22 22 22 21 20 20 22 24 26 26 27 27 27 27 27 28 28 28 28 27 28 28 28 29 29 29 28 28 27
11 11 11 11 10 10 10 11 11 12 12 12 12 12 12 11 11 11 11 12 12 12 12 12 13 13 13 14 14 14 14 14 13 12 11 11 10 11 11 11 12 13 14 15 17 19 20 21 22 22 22 22 21 21 21 22 22 23 22 22 21 21 22 24 25 26 26 27 27 27 28 28 28 28 27 27 27 27 27 28 28 29 29 28 27 27
12 11 11 11 11 11 11 12 12 12 12 12 12 12 12 11 11 11 11 11 12 12 12 12 11 12 12 14 14 15 15 15 15 14 13 12 12 11 11 12 12 13 14 16 17 19 20 22 23 23 23 22 22 22 22 22 22 22 23 23 22 23 23 24 24 25 25 26 27 28 29 29 28 27 26 26 26 26 26 26 27 27 28 28 28 27
12 11 11 11 11 11 11 11 11 11 12 12 12 12 12 11 11 11 10 11 11 12 12 12 11 12 13 14 15 15 15 16 16 16 15 14 14 13 13 12 12 13 15 16 17 19 19 20 21 22 23 22 21 22 22 22 22 22 22 23 23 23 23 24 24 25 25 25 26 28 29 29 28 26 26 26 26 26 26 26 26 26 27 27 28 28
11 11 11 11 10 10 10 10 10 11 12 12 13 12 12 11 10 10 10 10 11 11 11 11 12 12 13 14 15 14 14 15 16 16 16 16 15 15 14 13 14 14 15 16 17 18 18 18 18 19 21 21 21 21 22 23 22 22 22 22 22 22 23 24 24 24 24 25 26 27 28 27 26 26 27 27 26 26 25 26 26 26 26 27 28 28
11 11 10 10 10 10 10 11 11 11 12 12 12 12 12 11 10 10 10 10 11 11 11 12 12 13 13 14 14 14 14 14 15 16 16 16 16 15 15 15 15 16 16 17 16 16 16 16 16 16 17 19 20 22 23 23 23 22 22 21 22 22 22 23 24 24 24 25 26 27 27 26 26 26 26 25 25 26 26 26 26 26 27 27 28 28
11 10 10 10 11 11 11 11 11 11 12 12 12 12 12 11 10 10 10 10 11 11 11 12 12 13 14 14 14 14 14 14 15 16 16 16 15 15 15 16 17 17 17 16 16 15 15 15 15 14 13 13 16 18 20 21 21 22 21 21 21 21 22 23 24 24 24 25 25 26 27 26 26 25 25 24 25 26 26 26 26 27 27 28 29 29
11 11 11 11 11 11 11 11 11 11 12 12 12 11 11 11 10 10 10 10 11 11 12 12 12 13 13 14 14 14 14 14 15 15 16 15 15 15 15 16 16 16 16 16 15 15 14 13 13 12 13 11 11 12 15 18 20 21 21 21 21 21 22 22 23 24 25 25 25 25 26 26 25 24 24 23 24 24 25 26 27 28 29 29 30 31
Wind_Direction
102 95 80 55 41 39 38 34 34 42 56 68 75 76 76 78 80 82 84 83 81 78 74 70 66 65 64 58 46 36 33 33 33 33 34 34 33 31 30 27 25 24 23 21 20 19 17 15 12 10 8 6 4 3 1 0 359 358 357 356 355 355 353 352 351 350 348 347 346 345 344 343 343 342 341 340 339 338 338 337 336 336 335 335 335 334
102 94 77 54 40 39 38 35 35 40 51 60 66 70 74 77 80 81 81 80 78 74 70 65 62 60 60 58 50 41 36 37 38 38 38 37 36 35 32 28 25 23 22 21 19 17 16 14 12 9 8 6 5 4 2 2 0 359 358 357 356 355 354 352 351 350 348 347 346 345 344 343 342 341 340 339 338 338 337 336 336 335 335 334 334 333
97 87 70 49 36 35 36 35 36 43 52 58 63 66 70 72 74 76 76 76 75 72 67 62 58 56 56 55 51 46 42 43 43 42 41 40 38 36 33 30 26 23 21 19 18 16 14 12 11 9 7 6 5 4 3 2 1 0 359 358 356 355 354 352 351 349 348 347 346 344 343 342 342 341 340 339 338 337 336 336 335 334 334 333 332 332
91 81 67 50 37 33 33 33 38 47 57 63 67 69 70 70 70 71 75 76 74 70 64 59 55 53 52 51 49 47 45 45 45 44 43 42 40 38 35 31 27 23 20 18 16 15 13 11 10 8 7 6 5 4 3 2 1 0 359 357 356 355 353 352 350 349 348 346 345 344 343 342 341 340 339 338 337 336 335 334 334 333 332 332 331 331
88 80 70 54 40 34 30 33 42 53 64 68 69 69 70 69 70 74 78 78 75 68 61 55 51 49 47 46 45 44 44 44 45 45 44 43 41 39 36 32 28 23 19 17 15 13 12 10 8 7 6 5 4 3 2 2 1 360 358 357 356 354 353 352 350 349 348 347 345 344 343 342 340 339 338 337 336 335 334 334 333 333 332 332 331 331
90 85 78 60 43 34 28 33 44 56 64 67 68 68 67 69 70 72 73 72 71 66 59 52 47 44 43 41 41 40 40 41 42 43 42 42 40 38 35 32 28 25 20 17 14 12 10 8 7 6 5 4 3 2 2 1 0 359 358 356 355 354 352 351 350 349 347 346 345 343 342 341 340 338 337 336 335 335 334 334 334 334 333 333 332 332
99 101 96 76 55 40 33 36 43 50 54 57 62 66 68 69 67 64 62 61 62 62 58 52 45 41 38 36 35 35 36 37 38 38 37 37 36 35 32 30 28 25 22 18 14 11 9 7 5 5 4 4 3 2 1 0 360 358 357 356 354 353 352 350 349 348 347 346 344 343 342 340 339 338 337 337 337 337 336 336 336 335 335 334 333 332
103 107 101 80 64 53 45 43 44 45 45 46 47 51 58 63 63 60 58 56 55 53 51 48 44 38 33 29 26 27 28 30 31 31 31 30 30 29 27 26 25 24 21 18 15 11 8 6 5 5 5 5 4 3 1 0 359 358 356 354 353 352 350 349 348 347 346 345 344 342 341 340 340 339 339 339 339 338 338 337 337 336 335 334 333 332
98 89 77 62 51 47 46 45 45 44 43 42 39 37 38 42 48 53 54 51 47 43 40 38 37 35 30 23 18 17 19 23 26 27 25 24 23 22 21 20 20 20 19 17 14 11 7 5 5 5 6 7 6 4 1 360 358 356 354 353 351 350 349 348 347 347 346 345 344 343 342 342 341 341 341 340 340 339 339 338 337 335 334 333 332 331
96 80 67 54 43 40 42 41 42 45 45 44 40 36 32 29 28 30 32 35 38 39 36 33 29 27 24 19 13 9 10 15 21 25 24 22 19 17 16 15 15 15 15 14 12 9 7 5 4 5 6 7 7 6 2 359 356 354 352 350 349 348 348 347 347 347 346 345 345 344 343 343 342 342 342 341 340 339 338 337 336 334 333 332 331 329
91 75 62 52 45 42 43 40 40 42 48 50 49 43 36 30 24 18 14 13 18 25 29 30 28 23 18 13 8 5 2 5 11 19 23 21 17 14 13 12 11 11 11 11 10 8 6 4 4 4 6 7 8 6 2 357 353 350 349 348 347 347 347 347 347 347 346 346 345 345 344 344 343 342 342 341 340 339 337 336 335 333 332 331 329 328
84 70 57 48 43 41 43 43 42 40 41 41 38 33 29 27 23 17 9 4 4 8 13 20 27 26 19 9 4 1 358 358 1 7 15 17 14 11 8 7 8 8 8 9 9 7 5 3 3 4 5 6 6 4 359 354 351 349 348 347 347 347 347 347 347 347 346 346 345 345 344 344 343 342 341 340 339 338 336 335 334 332 331 330 328 327
85 72 61 52 44 38 35 33 33 33 32 31 27 21 15 16 16 13 9 5 3 2 2 7 15 23 22 12 3 358 355 354 355 358 5 11 11 8 4 3 3 4 4 5 6 5 3 2 2 2 3 4 4 1 356 352 349 348 347 347 347 347 347 347 347 346 346 346 345 344 344 343 342 342 341 339 338 337 336 334 333 332 330 329 328 327
85 76 65 53 44 37 31 27 26 27 26 26 23 18 12 10 9 8 6 4 3 2 0 1 6 14 19 11 3 358 353 351 350 352 357 4 8 5 1 359 359 360 0 0 1 1 1 359 359 0 2 3 2 358 353 350 348 347 347 347 347 347 346 346 346 346 345 345 344 344 343 342 341 340 339 338 337 336 335 334 332 331 330 329 328 327
81 69 58 48 41 35 28 25 23 23 22 18 14 10 8 6 6 5 3 360 359 0 0 359 1 7 12 7 1 357 352 350 349 349 350 356 3 4 359 355 355 355 356 356 356 357 358 357 356 357 359 1 359 355 350 348 347 346 346 346 346 346 346 346 346 345 345 344 343 342 342 341 340 339 338 337 336 335 334 333 332 331 330 329 328 328
83 68 57 47 39 32 26 20 17 14 13 9 4 1 359 359 1 3 1 357 356 358 359 357 356 357 358 360 359 356 352 350 347 345 343 347 356 2 357 353 351 351 352 352 353 354 355 355 355 356 357 358 356 351 348 347 346 346 346 345 345 345 345 345 345 344 343 343 342 341 340 339 338 337 337 336 335 334 333 332 331 331 330 329 328 328
88 74 62 47 34 26 23 16 10 5 1 358 356 355 355 354 355 356 356 354 354 356 357 358 354 347 341 343 350 355 353 349 345 342 339 340 348 356 355 351 348 346 347 349 350 351 352 352 353 355 356 355 353 350 348 347 346 345 345 344 344 344 344 344 343 342 342 341 340 339 338 337 337 336 335 335 334 333 333 332 331 331 330 330 329 328
92 80 63 42 24 17 16 9 3 358 353 350 347 346 347 347 348 349 350 350 350 350 350 350 347 339 331 328 337 348 353 348 343 338 335 335 341 349 352 349 346 344 344 346 349 350 350 350 352 353 353 354 352 349 348 346 345 344 344 343 343 343 342 342 341 340 340 339 338 337 336 336 335 335 334 334 333 333 332 332 331 331 330 330 329 328
92 77 60 36 21 14 11 5 358 353 347 342 339 337 336 336 338 340 342 343 343 341 339 336 333 329 324 318 329 343 351 348 342 336 332 329 334 342 347 346 344 342 342 344 347 348 348 349 351 353 353 353 352 349 347 345 344 343 341 341 340 340 340 340 339 338 337 337 336 335 335 334 334 334 333 333 332 332 332 331 331 331 330 330 329 329
86 71 53 35 20 10 3 3 359 352 341 335 330 327 325 326 328 330 331 331 331 330 329 325 323 321 320 319 327 340 350 348 343 336 329 325 328 336 343 344 343 342 340 342 345 346 346 347 350 353 354 353 351 348 345 343 342 340 339 339 338 338 338 338 337 336 335 335 334 334 333 333 333 332 332 332 332 332 331 331 331 330 330 330 329 329
76 63 44 26 10 358 350 352 350 343 337 331 323 319 318 319 321 321 322 322 321 321 320 317 316 317 318 319 326 337 348 348 343 336 329 325 327 334 341 343 343 340 338 340 342 344 344 345 347 350 351 350 349 346 344 342 339 338 337 336 336 336 336 335 335 334 334 333 333 333 332 332 332 332 332 332 331 331 331 331 331 330 330 329 329 328
57 48 32 13 354 344 340 337 336 334 331 324 317 315 315 314 313 314 316 316 315 314 312 310 312 315 317 319 326 337 346 347 343 337 331 325 324 330 339 342 341 339 336 336 339 340 341 342 344 346 348 348 347 345 342 340 337 336 335 334 334 334 334 334 333 333 332 332 332 332 331 332 331 331 331 331 331 331 331 331 330 330 330 329 329 328
26 18 9 354 342 335 331 328 328 329 326 318 313 312 312 309 307 308 310 309 307 307 308 309 311 314 317 321 329 338 345 347 344 340 334 324 322 328 336 340 340 337 333 333 335 337 337 338 340 343 345 347 346 344 341 338 335 334 333 333 332 332 332 332 331 331 331 331 331 331 331 331 331 331 331 331 331 331 331 330 330 330 329 329 328 328
358 349 343 339 335 333 330 327 326 325 321 316 314 313 311 308 307 304 301 300 301 303 306 309 312 316 320 325 331 337 343 347 347 344 338 325 320 325 332 338 338 334 330 331 333 334 334 334 336 340 342 344 345 343 339 337 334 333 332 331 331 331 331 330 330 330 330 330 330 330 330 331 331 330 330 330 330 330 330 330 330 329 329 329 328 327
343 338 335 335 335 331 325 322 320 317 314 314 315 315 314 311 306 300 295 294 297 301 306 312 317 321 323 328 331 334 340 347 349 346 340 328 321 324 330 337 337 333 328 328 330 332 331 331 332 335 339 341 342 341 338 336 333 331 330 330 330 330 329 330 330 330 330 330 330 330 330 330 330 330 330 330 330 330 330 330 329 329 329 328 327 327
330 329 329 327 322 315 308 305 303 302 303 307 310 312 311 306 298 290 285 287 294 304 312 319 322 323 325 328 329 331 337 346 350 348 341 332 325 325 330 336 337 332 327 326 328 329 329 327 328 331 334 337 339 337 335 333 332 330 329 329 329 329 329 329 329 330 329 329 330 330 330 330 330 330 330 330 330 330 330 329 329 329 329 328 327 326
286 294 296 297 297 297 296 295 293 292 295 297 303 306 302 294 287 284 284 290 300 310 318 323 323 322 325 327 325 327 332 341 347 346 340 335 329 327 329 334 336 332 327 325 325 325 324 322 323 327 330 333 334 333 332 331 331 329 329 328 328 328 329 329 329 329 329 329 330 330 329 329 330 330 330 330 330 330 329 329 329 329 329 328 327 326
265 263 265 272 279 283 284 281 280 284 291 298 303 299 288 283 284 290 295 299 306 314 320 322 322 322 321 320 318 321 327 337 344 342 337 337 332 326 327 332 334 332 328 324 322 321 321 320 322 325 328 330 329 329 329 330 330 330 330 329 329 328 329 329 329 329 329 329 329 330 330 329 329 329 329 329 329 329 329 329 330 329 329 328 327 325
264 262 262 265 268 271 272 271 269 269 273 286 296 287 275 278 285 293 298 302 309 314 317 318 319 317 316 315 314 315 320 334 346 341 337 339 332 324 327 331 333 333 330 326 323 322 321 321 323 325 327 326 326 326 328 329 330 330 330 330 329 329 329 329 329 329 329 329 329 329 329 329 329 329 329 329 329 329 329 330 330 330 329 328 326 325
266 264 264 263 265 267 269 271 271 267 262 263 270 274 274 281 287 291 295 300 305 308 311 313 313 314 316 319 319 316 312 338 347 342 341 339 330 323 326 329 330 331 332 330 327 324 321 320 322 324 325 324 324 324 326 328 329 329 329 328 328 328 329 329 330 329 329 329 330 329 329 329 329 328 328 329 329 329 329 330 330 330 328 327 326 324
281 274 269 267 266 267 271 273 272 269 263 260 262 269 276 282 286 289 291 295 298 299 302 304 306 308 313 319 320 310 295 308 327 336 340 334 324 319 323 324 324 325 329 329 327 322 319 318 319 320 323 323 322 322 324 325 326 327 327 326 326 326 328 329 329 329 329 330 330 329 329 329 328 328 328 329 329 329 329 330 330 329 328 327 325 324
293 281 275 273 271 273 275 275 274 272 269 265 266 268 273 278 283 287 289 290 291 293 294 295 297 298 299 296 283 272 281 294 310 326 333 327 317 314 317 318 317 318 320 318 311 304 304 310 313 316 319 320 320 320 321 323 324 325 325 324 324 324 326 328 328 328 329 329 329 329 329 329 329 328 328 328 328 328 328 329 329 329 328 326 324 323
293 282 277 275 275 277 278 277 277 275 273 271 269 270 272 275 279 283 285 286 287 287 288 289 291 294 292 284 276 274 278 288 301 316 323 320 314 312 313 313 312 312 312 309 302 294 290 295 304 310 314 315 316 317 318 320 322 323 323 323 322 323 325 326 327 327 327 327 327 327 328 329 329 329 328 328 328 327 327 327 327 327 327 325 323 322
290 282 277 276 277 278 278 277 277 276 275 275 274 274 275 277 278 281 283 285 285 285 284 285 287 290 289 286 282 281 282 286 297 310 315 314 311 309 308 308 307 308 309 307 304 299 294 294 300 306 309 312 313 314 316 318 319 321 321 320 320 321 322 324 325 325 324 324 324 325 327 328 328 328 328 327 327 326 326 325 325 325 325 324 322 321
286 280 277 277 279 280 278 277 275 275 275 277 278 280 281 282 282 283 284 285 285 285 283 282 283 284 283 283 284 285 285 289 295 302 305 305 305 304 304 302 302 304 305 304 303 302 300 299 301 304 306 309 310 312 313 316 318 319 319 318 319 319 321 322 322 322 322 322 323 324 325 326 326 326 326 326 326 325 324 323 323 323 323 322 321 320
281 276 275 278 280 280 279 276 275 274 276 279 283 286 288 289 288 287 287 287 288 287 286 284 283 282 281 281 280 281 284 289 293 296 296 297 297 298 297 295 296 298 299 299 300 300 300 301 302 303 304 306 308 310 312 315 317 318 318 318 318 318 319 320 321 321 321 321 321 321 322 324 324 324 324 324 324 323 323 323 323 323 322 321 320 319
275 272 274 277 280 280 277 275 275 276 279 284 289 293 296 298 297 297 295 294 293 293 292 291 289 286 284 282 281 282 284 287 290 291 291 292 292 292 290 289 290 291 291 293 295 298 299 300 302 303 303 303 304 308 311 315 317 317 317 317 317 317 317 318 319 320 319 319 318 319 320 321 322 322 322 323 323 323 322 322 322 322 322 321 320 318
270 270 273 278 279 278 275 274 275 278 283 290 296 300 303 305 305 304 302 299 297 296 295 293 290 288 286 283 281 282 283 286 288 289 290 290 290 289 288 287 287 288 288 288 290 293 295 297 300 301 302 301 301 304 307 312 314 314 315 315 315 315 316 317 318 319 318 317 317 318 319 320 320 321 321 322 322 322 321 321 322 322 321 321 320 319
268 270 274 278 278 276 273 272 275 279 286 291 296 300 302 302 300 298 296 295 294 293 291 290 288 286 284 282 282 282 283 285 288 290 291 291 289 289 289 289 289 291 292 291 289 288 288 289 292 295 298 300 302 304 306 308 309 311 313 314 315 315 315 316 317 317 317 316 316 317 318 319 320 320 320 321 321 321 319 319 319 320 319 318 318 318
268 272 276 278 278 274 271 271 275 280 285 289 292 294 293 292 290 289 287 287 287 288 290 290 290 288 287 286 286 286 288 290 292 293 293 291 290 290 290 291 293 295 297 296 292 289 285 284 286 288 292 295 298 301 304 305 306 308 311 313 314 314 315 316 316 316 316 316 317 317 318 318 319 319 319 319 319 318 317 316 316 316 316 315 315 315
270 274 278 279 277 272 269 270 274 279 283 286 288 289 289 289 290 289 288 287 288 291 295 297 298 297 296 294 294 295 297 299 299 298 295 293 291 290 289 290 292 295 298 298 295 290 285 283 285 287 290 292 295 297 299 300 303 306 308 308 308 309 311 313 314 315 316 316 316 317 317 318 318 318 318 318 317 315 314 313 313 313 313 313 312 311
271 275 279 280 277 272 270 271 274 278 282 284 286 288 290 292 294 295 296 297 299 301 304 306 305 303 300 299 300 302 305 305 304 301 299 296 294 293 291 291 293 297 299 298 294 291 287 285 285 287 289 292 294 296 296 298 300 302 304 304 306 309 311 312 313 315 316 316 316 317 317 317 317 317 317 317 315 314 314 313 312 312 312 311 310 309
271 275 278 279 276 272 271 272 275 278 281 283 285 288 291 294 297 299 300 301 303 306 308 309 307 304 301 300 301 303 306 306 305 303 302 302 301 299 298 297 298 300 300 298 295 292 292 290 288 287 288 290 291 292 293 295 298 300 301 302 305 309 310 311 313 314 315 315 315 316 316 316 316 316 315 315 314 313 313 313 313 313 312 311 309 309
270 272 273 272 270 269 268 269 272 275 279 282 285 288 291 294 296 297 298 299 302 305 309 310 309 305 301 299 300 302 305 306 305 304 304 305 305 305 303 302 301 300 298 297 295 295 295 294 291 289 290 290 290 289 289 292 295 298 299 301 303 304 303 306 309 312 313 314 314 315 315 316 316 316 315 313 313 313 313 313 313 312 312 311 310 309
268 268 266 264 263 263 264 267 270 274 277 281 285 289 292 294 294 294 295 298 302 306 309 311 310 307 302 301 302 304 306 306 306 306 306 307 308 307 305 303 301 298 295 293 293 294 295 293 292 292 293 292 290 287 287 288 291 294 297 300 302 302 301 303 307 310 311 312 313 314 315 316 316 315 314 313 313 313 312 311 311 311 311 311 311 309
265 264 262 261 261 264 267 271 275 279 283 286 289 292 295 295 295 293 295 298 302 305 307 308 306 302 299 300 303 306 307 307 307 308 309 310 310 309 307 303 300 298 296 294 293 292 291 291 291 292 294 293 291 287 286 287 290 293 297 300 302 304 304 306 307 309 310 311 312 313 315 316 316 315 313 311 310 310 310 310 310 310 311 311 311 310
263 262 261 262 265 268 271 276 281 285 289 291 294 296 298 298 297 296 297 298 300 302 304 304 302 298 295 297 300 303 305 306 307 308 309 311 312 311 309 306 302 300 298 297 296 295 293 292 292 291 290 289 289 288 289 290 291 292 295 300 303 305 306 307 308 309 310 310 311 312 315 316 316 314 312 310 309 309 309 309 310 310 311 311 311 311
263 263 263 264 267 270 274 278 282 286 289 291 294 297 298 298 298 297 296 296 296 298 299 300 299 297 295 295 296 299 301 302 304 306 308 311 313 313 311 309 307 305 303 301 299 297 295 294 293 290 287 284 283 284 288 291 293 295 297 301 304 306 307 307 309 310 311 310 311 312 314 314 314 312 310 308 307 307 307 309 310 311 312 312 312 312
262 262 263 264 266 269 273 277 282 285 288 291 294 297 297 295 293 290 290 291 292 294 295 296 296 296 295 295 297 298 299 300 301 304 306 310 313 314 314 313 313 312 310 307 305 301 299 297 294 290 285 282 279 280 285 290 294 298 301 304 306 307 307 308 309 310 311 311 311 312 313 312 310 309 307 305 305 305 306 308 310 312 313 313 313 312
260 260 261 263 265 269 273 277 281 285 287 290 293 295 294 293 291 288 287 289 290 291 291 291 292 292 293 294 296 298 299 300 301 303 305 309 312 314 315 315 317 317 316 315 313 311 309 305 301 295 290 284 281 282 286 292 298 303 306 306 307 308 308 308 309 310 311 311 310 311 311 310 309 308 306 304 303 304 306 308 310 312 313 314 313 313
257 259 261 263 265 268 272 276 280 283 286 288 290 292 292 292 291 290 289 289 288 288 288 288 288 288 288 291 294 295 296 298 299 301 304 307 310 312 313 314 317 319 319 318 317 316 315 312 309 304 299 292 285 286 291 298 304 308 308 307 308 309 309 309 309 310 311 311 310 310 309 309 308 308 306 305 304 304 306 308 310 312 313 314 314 313